Preview of NWS' New Version of Forecast
This preview is not operational and should not be used for support decisions.
Latest weather observations around

Auburn-Lewiston (KLEW)

Using English Units (Switch to International System of Units)
Date/ Time (EST) Wind (mph) Vis. (mi) Weather Sky Cond. Temp (°F) Rel. Humidity Wind Chill (°F) Heat Index (°F) Pressure Precip. (in)
Air Dwpt 6 hour Altimeter (inHg) Sea level (inHg) 1 hr 3 hr 6 hr
Max Min
Feb 22 08:56 N 14 10 Clear   33 10     38% 23   30.65 30.7      
Feb 22 07:56 N 10 10 Cloudy OVC100 33 14     45% 25   30.64 30.69      
Feb 22 06:56 N 10 10 Cloudy OVC110 33 16     49% 25   30.62 30.68      
Feb 22 05:56 N 9 10 Cloudy OVC120 33 17     51% 25   30.6 30.65      
Feb 22 04:56 N 13 10 Mostly Clear FEW120 34 16     47% 25   30.58 30.63      
Feb 22 03:56   10 Partly Cloudy SCT110 35 19     52%     30.56 30.61      
Feb 22 02:56 N 11 10 Clear CLR 36 21     54% 28   30.53 30.58      
Feb 22 01:56   10 Partly Cloudy SCT095 38 22     52%     30.5 30.55      
Feb 22 00:56 N 11 10 Mostly Cloudy BKN095 39 26     59% 32   30.48 30.53      
Feb 21 23:56 NNW 13 10 Mostly Cloudy BKN095 42 27     55% 35   30.43 30.47      
Feb 21 22:56 N 11 10 Cloudy OVC090 45 28     51% 39   30.37 30.42      
Feb 21 21:56 NNW 9 10 Mostly Clear FEW090 47 33     58% 43   30.32 30.37      
Feb 21 20:56 NNW 7 10 Mostly Cloudy BKN080 49 32     52% 46   30.29 30.34      
Feb 21 19:56 NNW 9 10 Cloudy FEW060 OVC075 51 34     52%     30.25 30.3      
Feb 21 18:56   10 Cloudy OVC075 54 36     50%     30.2 30.25      
Feb 21 17:56   10 Cloudy BKN047 OVC060 57 47     69%     30.14 30.19      
Feb 21 16:56   10 Cloudy SCT049 BKN080 OVC090 64 52     65%     30.06 30.11      
Feb 21 15:56 SSW 11 10 Mostly Clear FEW100 66 51     59%     30 30.05      
Feb 21 14:56 SSW 13 10 Clear CLR 65 51     61%     29.98 30.03      
Feb 21 13:56 S 7 10 Clear CLR 63 50     63%     30 30.05      
Feb 21 12:56   10 Clear CLR 59 52     78%     30 30.05     0
Feb 21 11:56 Calm 10 Clear CLR 50 49     96%     30.04 30.09      
Feb 21 11:22 Calm 7 Mostly Clear FEW002 43 43     100%     30.07        
Feb 21 11:15 Calm 1.25 Fog/Mist SCT002 43 43     100%     30.07        
Feb 21 11:12 Calm 0.5 Fog VV002 43 43     100%     30.07        
Feb 21 10:56 Calm 0.25 Fog OVC001 41 40     96%     30.08 30.14      
Feb 21 10:44 Calm 0.25 Fog OVC001 39 39     100%     30.09        
Feb 21 09:56 Calm 0.25 Fog OVC003 39 39     100%     30.11 30.16   0  
Feb 21 08:56 Calm 0.25 Fog OVC003 37 37     100%     30.13 30.17      
Feb 21 07:56 Calm 0.25 Light Rain and Fog OVC003 35 35     100%     30.14 30.19 0    
Feb 21 06:56 SSE 3 0.25 Light Rain and Fog OVC003 35 35     100% 32   30.15 30.2 0   0
Feb 21 05:56 SE 3 0.25 Light Rain and Fog OVC003 35 35     100% 32   30.16 30.21 0    
Feb 21 05:05 Calm 0.25 Fog OVC003 36 36     100%     30.19        
Feb 21 04:56 Calm 0.5 Fog OVC003 35 35     100%     30.19 30.24 0    
Feb 21 03:56 S 5 0.25 Light Rain and Fog OVC003 35 35     100% 31   30.2 30.25 0 0  
Feb 21 02:56 Calm 0.25 Fog OVC003 35 35     100%     30.23 30.27      
Feb 21 02:28 Calm 0.25 Fog OVC003 36 36     100%     30.23        
Feb 21 02:05 Calm 0.25 Fog OVC003 34 34     100%     30.25        
Feb 21 01:56 Calm 0.5 Fog OVC003 36 36     100%     30.25 30.3      
Feb 21 00:56 Calm 0.25 Fog OVC003 35 35     100%     30.25 30.3     0
Feb 21 00:30 Calm 0.25 Fog OVC003 36 36     100%     30.26        
Feb 21 00:12 Calm 0.5 Fog OVC003 36 36     100%     30.26        
Feb 20 23:56 NNE 3 0.25 Fog OVC003 36 36     100% 33   30.28 30.33      
Feb 20 23:35 Calm 0.25 Fog OVC003 36 36     100%     30.28        
Feb 20 23:21 Calm 0.5 Fog OVC003 37 37     100%     30.27        
Feb 20 22:56 Calm 0.25 Fog OVC003 36 36     100%     30.27 30.32 0    
Feb 20 22:51 Calm 0.25 Fog OVC003 36 36     100%     30.27   0    
Feb 20 22:42 Calm 0.5 Fog OVC003 37 37     100%     30.27   0    
Feb 20 22:12 Calm 0.25 Fog OVC003 36 36     100%     30.28   0    
Feb 20 21:56 Calm 0.5 Light Rain and Fog OVC003 36 36     100%     30.28 30.32 0 0  
Feb 20 21:37 Calm 0.5 Fog OVC003 36 36     100%     30.27   0    
Feb 20 20:56 Calm 0.25 Light Rain and Fog OVC003 37 37     100%     30.27 30.32 0    
Feb 20 20:36 Calm 0.25 Fog OVC003 36 36     100%     30.28   0    
Feb 20 20:21 Calm 0.5 Light Rain and Fog OVC003 37 37     100%     30.27   0    
Feb 20 19:56 N 3 0.25 Light Rain and Fog OVC003 37 37     100% 35   30.28 30.33 0    
Feb 20 18:56 Calm 0.25 Fog OVC003 37 37     100%     30.27 30.32 0   0
Feb 20 17:56 N 5 0.25 Light Rain and Fog OVC003 37 37     100% 33   30.27 30.32 0    
Feb 20 16:56 N 5 0.25 Light Rain and Fog OVC003 37 37     100% 33   30.24 30.29 0    
Feb 20 15:56 N 6 0.25 Light Rain and Fog OVC003 39 39     100% 35   30.24 30.29 0 0  
Feb 20 15:42 N 5 0.25 Light Rain and Fog OVC003 39 37     93% 36   30.24   0    
Feb 20 15:33 N 5 0.5 Light Rain and Fog OVC003 39 37     93% 36   30.24   0    
Feb 20 15:20 N 6 0.75 Light Rain and Fog/Mist OVC003 39 39     100% 35   30.24   0    
Feb 20 15:09 N 5 0.25 Light Rain and Fog OVC003 39 37     93% 36   30.24   0    
Feb 20 14:56 N 3 0.75 Fog/Mist OVC003 39 38     96% 37   30.24 30.29      
Feb 20 14:51 N 5 0.75 Fog/Mist OVC003 39 37     93% 36   30.24        
Feb 20 14:49 N 5 1.5 Fog/Mist OVC003 39 39     100% 36   30.24        
Feb 20 14:43 N 5 2 Fog/Mist OVC005 39 39     100% 36   30.24        
Feb 20 13:56 N 5 7 Cloudy OVC005 39 38     96% 36   30.25 30.3 0    
Feb 20 13:41 N 5 7 Cloudy OVC005 39 37     93% 36   30.24        
Feb 20 12:56 N 5 10 Cloudy OVC007 39 37     93% 36   30.23 30.28 0   0
Feb 20 11:56 N 6 10 Cloudy OVC007 40 38     93% 36   30.24 30.29 0    
Feb 20 10:56 Calm 10 Light Rain OVC007 39 37     93%     30.26 30.31 0    
Feb 20 09:56 N 5 10 Cloudy OVC007 38 36     92% 34   30.26 30.31   0  
Feb 20 09:42 Calm 10 Cloudy BKN007 OVC015 37 36     93%     30.26        
Feb 20 08:56 N 6 8 Cloudy FEW006 OVC015 37 37     100% 32   30.26 30.31      
Feb 20 08:20 N 5 5 Fog/Mist FEW007 OVC017 37 37     100% 34   30.26        
Feb 20 08:04 N 6 3 Fog/Mist OVC017 36 36     100% 31   30.25        
Feb 20 07:58 N 7 1.25 Fog/Mist FEW005 OVC017 36 36     100% 30   30.25        
Feb 20 07:56 N 7 0.75 Fog/Mist FEW005 OVC017 36 36     100% 30   30.25 30.3 0    
Feb 20 07:53 N 6 0.75 Fog/Mist FEW005 OVC017 37 37     100% 33   30.25   0    
Feb 20 07:45 N 5 0.25 Fog FEW005 OVC019 36 36     100% 32   30.24   0    
Feb 20 07:38 N 3 0.75 Fog/Mist SCT005 OVC019 36 36     100% 33   30.25   0    
Feb 20 07:31 N 3 1.25 Fog/Mist SCT005 OVC019 36 36     100% 33   30.24   0    
Feb 20 07:26 NNW 5 0.75 Fog/Mist BKN005 OVC019 36 36     100% 32   30.25   0    
Feb 20 07:20 Calm 1.5 Fog/Mist BKN005 OVC019 37 37     100%     30.25   0    
Feb 20 07:15 Calm 2 Light Rain and Fog/Mist BKN003 OVC019 37 37     100%     30.25   0    
Feb 20 07:06 Calm 1 Light Rain and Fog/Mist BKN003 OVC019 36 36     100%     30.24   0    
Feb 20 06:56 NW 3 1.25 Light Rain and Fog/Mist OVC003 37 36     96% 35   30.24 30.29 0   0
Feb 20 06:32 Calm 1.75 Fog/Mist OVC003 36 36     100%     30.23        
Feb 20 06:23 N 6 3 Fog/Mist BKN003 OVC021 37 36     93% 33   30.22        
Feb 20 05:53 N 6 2.5 Fog/Mist BKN003 OVC023 35 35     100% 30   30.21 30.26 0    
Feb 20 05:52 N 6 2.5 Fog/Mist BKN003 OVC023 36 36     100% 31   30.21   0    
Feb 20 05:44 N 5 3 Fog/Mist SCT005 OVC023 36 36     100% 32   30.21   0    
Feb 20 04:56 Calm 10 Light Rain BKN005 BKN009 OVC030 37 36     96%     30.22 30.27 0    
Feb 20 04:43 Calm 9 Light Rain SCT005 OVC030 36 36     100%     30.22   0    
Feb 20 03:56 Calm 7 Cloudy FEW021 BKN040 OVC049 36 35     96%     30.2 30.25      
Feb 20 03:47 S 3 9 Cloudy SCT023 BKN043 OVC049 36 36     100% 33   30.19        
Feb 20 03:09 ESE 3 10 Cloudy SCT007 BKN028 OVC036 37 37     100% 35   30.2        
Feb 20 02:56 Calm 9 Cloudy BKN007 BKN036 OVC070 37 37     100%     30.21 30.26      
Feb 20 02:23 ESE 3 10 Cloudy BKN007 OVC035 39 37     93% 37   30.21        
Feb 20 02:07 Calm 10 Cloudy FEW007 OVC035 39 37     93%     30.21        
Feb 20 01:56 Calm 10 Cloudy OVC037 38 37     97%     30.22 30.27      
Feb 20 00:56 S 3 10 Cloudy SCT049 OVC060 39 37     93% 37   30.22 30.27 0   0
Feb 19 23:56 S 6 10 Cloudy OVC090 40 37     89% 36   30.22 30.27      
Notice The following observation data may not be complete
Feb 19 22:06   10 Cloudy FEW025 OVC030          %              
Feb 19 21:56 S 7 10 Cloudy OVC028 41 34     76% 36   30.23 30.28      
Feb 19 20:56 S 9 10 Cloudy OVC028 41 34     76% 35   30.25 30.3      
Feb 19 19:56 S 7 10 Cloudy OVC034 40 35     83% 35   30.26 30.31      
Feb 19 18:56 S 8 10 Cloudy OVC040 40 34     79% 34   30.28 30.33      
Feb 19 17:56 S 9 10 Cloudy OVC042 40 34     79% 34   30.29 30.34      
Feb 19 16:56 S 7 10 Cloudy FEW046 OVC060 41 32     70% 36   30.32 30.37      
Feb 19 15:56 SSE 9 10 Clear CLR 41 31     67% 35   30.32 30.37      
Feb 19 14:56 SSE 9 10 Partly Cloudy SCT110 43 29     57% 38   30.33 30.38      
Feb 19 13:56   10 Clear CLR 44 24     45%     30.34 30.39      
Feb 19 12:56 S 15 10 Clear CLR 43 24     47% 36   30.36 30.41      
Feb 19 11:56   10 Clear CLR 41 24     51%     30.41 30.46      
Feb 19 10:56 S 13 10 Clear CLR 39 23     52% 31   30.47 30.52      
Feb 19 09:56 S 10 10 Clear CLR 36 25     64% 29   30.5 30.55      
Jun 11 23:56 Calm 10 Clear CLR 75 61     62%   75 29.87 29.9      
Jun 11 19:56 SW 8 10 Clear   85 61     45%   85 29.8 29.82      
Jun 11 12:56   10 Clear CLR 87 61     42%   87 29.81 29.84      
Jun 11 11:56 SW 11 10 Clear   84 62     48%   85 29.85 29.88      
Jun 11 10:56 S 13 10 Clear   82 64     55%   84 29.87 29.9      
Jun 11 08:56 SW 9 10 Clear CLR 77 62     60%   77 29.9 29.94      
Jun 10 04:56 Calm 10 Clear CLR 51 50     96%     29.86 29.9      
Jun 09 21:56 WSW 6 10 Clear CLR 66 52     61%     29.69 29.73      
Jun 09 13:56 Calm 10 Rain   57 51     81%     29.63   0   0
Jun 09 12:56 WNW 3 10 Light Rain FEW041 BKN065 OVC075 61 46     58%     29.64 29.68 0    
Jun 09 05:56 Calm 10 Mostly Clear FEW120 50 47     89%     29.71 29.75      
Jun 08 19:56 SSE 8 10 Clear CLR 63 42     46%     29.9 29.94      
Notice The following observation data may not be complete
Jun 06 09:06   10 Light Rain            %         0    
Jun 06 04:56 NNE 7 10 Light Rain FEW019 OVC060 49 46     90% 46   29.93 29.98 0 0  
Jun 06 00:56 NE 7 10 Cloudy OVC055 50 46     86% 47   29.96 30.01